Tracking 27112 objects as of 26-Mar-2023
HD Live streaming from Space Station
objects crossing your sky now

SL-16 R/B

Track SL-16 R/B now!
10-day predictions
SL-16 R/B is classified as:


NORAD ID: 23705
Int'l Code: 1995-058B
Perigee: 838.7 km
Apogee: 858.7 km
Inclination: 71.0 °
Period: 101.8 minutes
Semi major axis: 7219 km
RCS: 9.8957 m2 (large)
Launch date: October 31, 1995
Source: Commonwealth of Independent States (former USSR) (CIS)
Launch site: TYURATAM MISSILE AND SPACE COMPLEX (TTMTR)

Note: This is a ROCKET BODY
Your satellite tracking list
Your tracking list is empty




NASA's NSSDC Master Catalog

Two Line Element Set (TLE):
1 23705U 95058B   23084.94003153  .00000292  00000-0  17472-3 0  9993
2 23705  71.0213 286.6395 0013830 317.5279  42.4772 14.15221340415077
Source of the keplerian elements: AFSPC